QPF
0.00 0.00 0.00 0.00 0.00 0.00 0.00 0.00 0.00 0.00 0.00 0.00 0.00 0.00 0.00 0.00 0.00 0.00 0.00 0.00 0.00 0.00 0.00 0.00 0.00 0.00 0.00 0.00 0.00 0.00 0.00 0.00 0.00 0.00 0.00 0.00 0.01 0.00 0.03 0.05 0.03 0.02 0.00 0.00 0.00
0.00 0.00 0.00 0.00 0.00 0.00 0.00 0.00 0.00 0.00 0.00 0.00 0.00 0.00 0.00 0.00 0.00 0.00 0.00 0.00 0.00 0.00 0.00 0.00 0.00 0.00 0.00 0.00 0.00 0.00 0.00 0.00 0.00 0.00 0.00 0.00 0.00 0.02 0.03 0.06 0.02 0.01 0.00 0.00 0.00
0.00 0.00 0.00 0.00 0.00 0.00 0.00 0.00 0.00 0.00 0.00 0.00 0.00 0.00 0.00 0.00 0.00 0.00 0.00 0.00 0.00 0.00 0.00 0.00 0.00 0.00 0.00 0.00 0.00 0.00 0.00 0.00 0.00 0.00 0.00 0.00 0.00 0.01 0.01 0.00 0.00 0.00 0.00 0.00 0.00
0.00 0.00 0.00 0.00 0.00 0.00 0.00 0.00 0.00 0.00 0.00 0.00 0.00 0.00 0.00 0.00 0.00 0.00 0.00 0.00 0.00 0.00 0.00 0.00 0.00 0.00 0.00 0.00 0.00 0.00 0.00 0.00 0.00 0.00 0.00 0.00 0.00 0.00 0.00 0.00 0.00 0.00 0.00 0.00 0.00
0.00 0.00 0.00 0.00 0.00 0.00 0.00 0.00 0.00 0.00 0.00 0.00 0.00 0.00 0.00 0.00 0.00 0.00 0.00 0.00 0.00 0.00 0.00 0.00 0.00 0.00 0.00 0.00 0.00 0.00 0.00 0.00 0.00 0.00 0.00 0.00 0.00 0.00 0.00 0.00 0.00 0.00 0.00 0.00 0.00
0.00 0.00 0.00 0.00 0.00 0.00 0.00 0.00 0.00 0.00 0.00 0.00 0.00 0.00 0.00 0.00 0.00 0.00 0.00 0.00 0.00 0.00 0.00 0.00 0.00 0.00 0.00 0.00 0.00 0.00 0.00 0.00 0.00 0.00 0.00 0.00 0.00 0.01 0.01 0.01 0.01 0.00 0.00 0.00 0.00
0.00 0.00 0.00 0.00 0.00 0.00 0.00 0.00 0.00 0.00 0.00 0.00 0.00 0.00 0.00 0.00 0.00 0.00 0.00 0.00 0.00 0.00 0.00 0.00 0.00 0.00 0.00 0.00 0.00 0.00 0.00 0.00 0.00 0.00 0.00 0.00 0.01 0.01 0.00 0.01 0.02 0.02 0.00 0.00 0.00
0.00 0.00 0.00 0.00 0.00 0.00 0.00 0.00 0.00 0.00 0.00 0.00 0.00 0.00 0.00 0.00 0.00 0.00 0.00 0.00 0.00 0.00 0.00 0.00 0.00 0.00 0.00 0.00 0.00 0.00 0.00 0.00 0.00 0.00 0.00 0.00 0.00 0.00 0.00 0.00 0.01 0.00 0.00 0.00 0.00
0.00 0.00 0.00 0.00 0.00 0.00 0.00 0.00 0.00 0.00 0.00 0.00 0.00 0.00 0.00 0.00 0.00 0.00 0.00 0.00 0.00 0.00 0.00 0.00 0.00 0.00 0.00 0.00 0.00 0.00 0.00 0.00 0.00 0.00 0.00 0.00 0.00 0.01 0.00 0.00 0.00 0.00 0.00 0.00 0.00
0.00 0.00 0.00 0.00 0.00 0.00 0.00 0.00 0.00 0.00 0.00 0.00 0.00 0.00 0.00 0.00 0.00 0.00 0.00 0.00 0.00 0.00 0.00 0.00 0.00 0.00 0.00 0.00 0.00 0.00 0.00 0.00 0.00 0.00 0.00 0.00 0.00 0.00 0.00 0.00 0.00 0.00 0.00 0.00 0.00
0.00 0.00 0.00 0.00 0.00 0.00 0.00 0.00 0.00 0.00 0.00 0.00 0.00 0.00 0.00 0.00 0.00 0.00 0.00 0.00 0.00 0.00 0.00 0.00 0.00 0.00 0.00 0.00 0.00 0.00 0.00 0.00 0.00 0.00 0.00 0.00 0.00 0.00 0.00 0.00 0.00 0.00 0.00 0.02 0.02
0.00 0.00 0.00 0.00 0.00 0.00 0.00 0.00 0.00 0.00 0.00 0.00 0.00 0.00 0.00 0.00 0.00 0.00 0.00 0.00 0.00 0.00 0.00 0.00 0.00 0.00 0.00 0.00 0.00 0.00 0.00 0.00 0.00 0.00 0.00 0.00 0.00 0.00 0.00 0.05 0.08 0.06 0.02 0.00 0.00
0.00 0.00 0.00 0.00 0.00 0.00 0.00 0.00 0.00 0.00 0.00 0.00 0.00 0.00 0.00 0.00 0.00 0.00 0.00 0.00 0.00 0.00 0.00 0.00 0.00 0.00 0.00 0.00 0.00 0.00 0.00 0.00 0.00 0.00 0.00 0.00 0.00 0.02 0.10 0.21 0.31 0.31 0.19 0.08 0.01
0.00 0.00 0.00 0.00 0.00 0.00 0.00 0.00 0.00 0.00 0.00 0.00 0.00 0.00 0.00 0.00 0.00 0.00 0.00 0.00 0.00 0.00 0.00 0.00 0.00 0.00 0.00 0.00 0.00 0.00 0.00 0.00 0.00 0.00 0.00 0.00 0.00 0.01 0.04 0.12 0.20 0.23 0.13 0.07 0.02
0.00 0.00 0.00 0.00 0.00 0.00 0.00 0.00 0.00 0.00 0.00 0.00 0.00 0.00 0.00 0.00 0.00 0.00 0.00 0.00 0.00 0.00 0.00 0.00 0.00 0.00 0.00 0.00 0.00 0.00 0.00 0.00 0.00 0.00 0.00 0.00 0.00 0.00 0.02 0.04 0.02 0.02 0.02 0.06 0.02
0.00 0.00 0.00 0.00 0.00 0.00 0.00 0.00 0.00 0.00 0.00 0.00 0.00 0.00 0.00 0.00 0.00 0.00 0.00 0.00 0.00 0.00 0.00 0.00 0.00 0.00 0.00 0.00 0.00 0.00 0.00 0.00 0.00 0.00 0.00 0.00 0.00 0.00 0.00 0.00 0.00 0.00 0.01 0.00 0.04
0.00 0.00 0.00 0.00 0.00 0.00 0.00 0.00 0.00 0.00 0.00 0.00 0.00 0.00 0.00 0.00 0.00 0.00 0.00 0.00 0.00 0.00 0.00 0.00 0.00 0.00 0.00 0.00 0.00 0.00 0.00 0.00 0.00 0.00 0.00 0.00 0.00 0.00 0.00 0.00 0.00 0.00 0.00 0.00 0.06
0.00 0.00 0.00 0.00 0.00 0.00 0.00 0.00 0.00 0.00 0.00 0.00 0.00 0.00 0.00 0.00 0.00 0.00 0.00 0.00 0.00 0.00 0.00 0.00 0.00 0.00 0.00 0.00 0.00 0.00 0.00 0.00 0.00 0.00 0.00 0.00 0.00 0.00 0.00 0.00 0.00 0.00 0.00 0.01 0.03
0.00 0.00 0.00 0.00 0.00 0.00 0.00 0.00 0.00 0.00 0.00 0.00 0.00 0.00 0.00 0.00 0.00 0.00 0.00 0.00 0.00 0.00 0.00 0.00 0.00 0.00 0.00 0.00 0.00 0.00 0.00 0.00 0.00 0.00 0.00 0.00 0.00 0.00 0.00 0.00 0.00 0.00 0.00 0.00 0.00
0.00 0.00 0.00 0.00 0.00 0.00 0.00 0.00 0.00 0.00 0.00 0.00 0.00 0.00 0.00 0.00 0.00 0.00 0.00 0.00 0.00 0.00 0.00 0.00 0.00 0.00 0.00 0.00 0.00 0.00 0.00 0.00 0.00 0.00 0.00 0.00 0.00 0.00 0.00 0.00 0.00 0.00 0.00 0.00 0.01
0.00 0.00 0.00 0.00 0.00 0.00 0.00 0.00 0.00 0.00 0.00 0.00 0.00 0.00 0.00 0.00 0.00 0.00 0.00 0.00 0.00 0.00 0.00 0.00 0.00 0.00 0.00 0.00 0.00 0.00 0.00 0.00 0.00 0.00 0.00 0.00 0.00 0.00 0.00 0.00 0.00 0.00 0.00 0.00 0.00
0.00 0.00 0.00 0.00 0.00 0.00 0.00 0.00 0.00 0.00 0.00 0.00 0.00 0.00 0.00 0.00 0.00 0.00 0.00 0.00 0.00 0.00 0.00 0.00 0.00 0.00 0.00 0.00 0.00 0.00 0.00 0.00 0.00 0.00 0.00 0.00 0.00 0.00 0.00 0.00 0.00 0.00 0.00 0.00 0.00
0.00 0.00 0.00 0.00 0.00 0.00 0.00 0.00 0.00 0.00 0.00 0.00 0.00 0.00 0.00 0.00 0.00 0.00 0.00 0.00 0.00 0.01 0.00 0.00 0.00 0.00 0.00 0.00 0.00 0.00 0.00 0.00 0.00 0.00 0.00 0.00 0.00 0.00 0.00 0.00 0.00 0.00 0.00 0.00 0.00
0.00 0.00 0.00 0.00 0.00 0.00 0.00 0.00 0.00 0.00 0.00 0.00 0.00 0.00 0.00 0.00 0.00 0.00 0.00 0.00 0.00 0.00 0.00 0.00 0.00 0.00 0.00 0.00 0.00 0.00 0.00 0.00 0.00 0.00 0.00 0.00 0.00 0.00 0.00 0.00 0.00 0.00 0.00 0.00 0.00
0.00 0.00 0.00 0.00 0.00 0.00 0.00 0.00 0.00 0.00 0.00 0.00 0.00 0.00 0.00 0.00 0.00 0.00 0.00 0.00 0.00 0.01 0.00 0.00 0.00 0.00 0.00 0.00 0.00 0.00 0.00 0.00 0.00 0.00 0.00 0.00 0.00 0.00 0.00 0.00 0.00 0.00 0.00 0.00 0.00
0.00 0.00 0.00 0.00 0.00 0.00 0.00 0.00 0.00 0.00 0.00 0.00 0.00 0.00 0.00 0.01 0.01 0.00 0.00 0.00 0.00 0.01 0.01 0.00 0.00 0.00 0.00 0.00 0.00 0.00 0.00 0.00 0.00 0.00 0.00 0.00 0.00 0.00 0.00 0.00 0.00 0.00 0.00 0.00 0.00
0.00 0.00 0.00 0.00 0.00 0.00 0.00 0.00 0.00 0.00 0.00 0.00 0.00 0.00 0.00 0.00 0.00 0.00 0.00 0.00 0.00 0.01 0.02 0.02 0.01 0.00 0.00 0.00 0.00 0.00 0.00 0.00 0.00 0.00 0.00 0.00 0.00 0.00 0.00 0.00 0.00 0.00 0.00 0.00 0.00
MSLP
1019.74 1019.24 1018.72 1018.15 1017.68 1017.30 1016.95 1016.48 1016.11 1015.63 1015.16 1014.82 1014.43 1014.02 1013.70 1013.33 1012.61 1012.26 1011.14 1008.37 1008.05 1007.64 1008.11 1007.91 1007.56 1007.61 1007.72 1008.02 1007.90 1008.41 1009.85 1010.19 1010.36 1010.55 1011.95 1012.46 1012.59 1012.03 1010.89 1010.50 1010.68 1010.94 1011.13 1011.88 1012.77
1019.80 1019.16 1018.61 1018.15 1017.67 1017.33 1016.79 1016.29 1015.85 1015.37 1014.95 1014.62 1014.25 1013.89 1013.60 1013.24 1012.71 1010.92 1006.89 1006.79 1006.98 1007.45 1008.00 1007.93 1007.83 1007.94 1008.15 1007.92 1007.77 1008.33 1009.32 1008.87 1008.78 1009.06 1010.96 1011.57 1011.37 1011.19 1011.02 1010.62 1011.22 1011.46 1011.53 1012.51 1013.10
1019.78 1019.15 1018.62 1018.09 1017.61 1017.10 1016.51 1015.93 1015.46 1015.08 1014.77 1014.37 1014.04 1013.76 1013.40 1013.23 1012.31 1008.06 1005.69 1006.00 1006.70 1007.19 1007.48 1007.72 1007.89 1008.18 1008.20 1007.90 1007.75 1007.97 1008.21 1007.72 1007.42 1008.18 1008.94 1010.57 1011.43 1010.82 1010.58 1010.86 1010.23 1011.05 1012.16 1013.13 1013.70
1019.80 1019.21 1018.66 1018.03 1017.43 1016.74 1016.16 1015.66 1015.30 1014.93 1014.52 1014.05 1013.85 1013.61 1013.23 1013.21 1010.77 1006.34 1005.60 1005.51 1006.48 1007.14 1007.58 1007.59 1007.86 1008.27 1008.24 1007.91 1007.31 1007.67 1007.11 1007.03 1006.73 1008.14 1009.32 1010.00 1010.80 1010.97 1010.38 1010.32 1010.41 1011.51 1011.96 1012.91 1013.78
1019.83 1019.15 1018.50 1017.78 1017.01 1016.29 1015.78 1015.34 1014.91 1014.52 1014.18 1013.78 1013.61 1013.44 1013.19 1012.46 1009.30 1005.87 1006.03 1006.14 1006.75 1007.21 1007.42 1007.61 1007.82 1008.05 1007.98 1007.39 1007.22 1007.19 1006.64 1006.47 1006.14 1007.68 1008.57 1009.55 1010.11 1010.69 1010.92 1010.81 1011.35 1012.03 1012.13 1012.98 1014.03
1019.69 1018.99 1018.25 1017.33 1016.53 1015.82 1015.21 1014.72 1014.29 1013.99 1013.73 1013.44 1013.35 1013.31 1012.94 1011.11 1006.46 1005.64 1006.01 1006.55 1006.70 1007.08 1007.11 1007.33 1006.94 1007.25 1007.37 1007.22 1007.23 1006.43 1006.32 1006.12 1006.40 1007.67 1008.45 1009.34 1010.65 1010.73 1011.36 1011.46 1011.99 1012.21 1012.24 1012.75 1013.69
1019.49 1018.77 1017.89 1017.00 1016.19 1015.44 1014.77 1014.21 1013.64 1013.38 1013.23 1013.01 1012.98 1012.97 1012.04 1008.32 1006.09 1005.89 1006.26 1006.53 1005.99 1006.48 1006.57 1006.26 1006.52 1007.25 1007.10 1007.17 1006.39 1006.31 1006.45 1005.79 1006.28 1007.57 1008.66 1009.92 1011.43 1010.47 1010.65 1011.41 1011.87 1012.43 1012.56 1013.22 1014.16
1019.25 1018.42 1017.60 1016.77 1015.82 1014.99 1014.28 1013.51 1012.89 1012.63 1012.58 1012.48 1012.54 1012.44 1010.43 1006.48 1006.09 1006.20 1005.96 1006.05 1006.03 1005.76 1005.97 1005.72 1006.23 1006.77 1006.99 1006.51 1006.32 1006.64 1006.56 1006.30 1005.60 1007.15 1008.23 1007.98 1010.02 1010.18 1010.62 1011.04 1011.60 1012.33 1012.89 1013.78 1014.95
1018.98 1018.14 1017.27 1016.40 1015.51 1014.56 1013.69 1012.79 1012.04 1011.72 1012.03 1012.15 1012.33 1011.75 1008.90 1005.73 1005.73 1004.65 1005.11 1005.51 1005.52 1005.50 1005.48 1005.37 1005.94 1006.54 1006.64 1007.09 1007.53 1007.43 1007.05 1006.55 1005.90 1005.59 1007.18 1008.34 1009.66 1010.25 1010.81 1011.02 1011.83 1012.41 1013.34 1014.40 1015.64
1018.71 1017.81 1016.83 1015.91 1015.16 1014.23 1013.25 1012.12 1011.50 1011.61 1011.95 1011.84 1011.28 1011.01 1007.72 1005.66 1004.65 1004.00 1004.33 1004.60 1005.34 1005.43 1005.81 1005.91 1006.31 1006.96 1007.59 1008.22 1008.40 1007.97 1007.45 1006.51 1006.04 1005.66 1006.56 1007.81 1008.54 1009.47 1010.06 1010.60 1011.50 1012.39 1013.57 1014.63 1015.96
1018.44 1017.50 1016.43 1015.42 1014.71 1014.08 1013.30 1012.19 1011.76 1011.40 1011.02 1010.02 1009.13 1008.14 1006.23 1005.12 1004.26 1003.93 1003.76 1004.23 1004.84 1005.51 1006.32 1006.43 1007.40 1007.70 1007.77 1007.97 1007.76 1007.62 1007.43 1006.91 1005.93 1005.31 1006.07 1006.97 1008.18 1008.89 1009.77 1010.65 1011.74 1012.94 1014.18 1015.48 1016.34
1018.30 1017.29 1016.04 1014.87 1014.21 1013.69 1013.63 1012.80 1011.40 1010.55 1009.46 1007.68 1006.73 1006.24 1005.30 1005.19 1005.18 1004.17 1003.76 1004.58 1005.07 1005.93 1006.38 1007.20 1007.36 1006.90 1006.94 1007.14 1007.46 1007.32 1007.12 1006.42 1005.48 1004.51 1005.06 1006.41 1007.48 1008.77 1009.50 1010.22 1011.24 1012.31 1013.91 1014.57 1016.17
1017.91 1017.03 1016.01 1014.54 1013.65 1013.27 1012.94 1011.25 1009.85 1009.70 1009.45 1005.89 1005.03 1004.68 1004.42 1004.66 1004.66 1004.01 1004.01 1004.11 1004.95 1005.89 1006.48 1006.97 1006.15 1006.04 1006.47 1006.45 1006.78 1006.46 1006.40 1005.83 1005.44 1004.86 1005.34 1006.53 1009.08 1010.27 1011.11 1011.37 1012.42 1013.62 1014.72 1015.63 1015.76
1017.66 1016.79 1015.96 1014.45 1013.43 1013.58 1011.87 1010.03 1009.49 1009.26 1009.30 1006.15 1004.10 1002.84 1003.08 1003.57 1003.57 1002.89 1003.07 1003.79 1004.71 1005.37 1006.17 1006.32 1005.35 1005.68 1005.66 1005.75 1005.56 1005.54 1004.77 1005.02 1005.14 1005.34 1005.98 1005.80 1009.30 1010.29 1011.07 1011.88 1012.38 1012.98 1013.35 1014.38 1013.31
1017.31 1016.62 1015.95 1015.73 1015.01 1013.57 1010.98 1009.99 1009.56 1009.46 1008.71 1005.01 1003.30 1002.15 1002.41 1002.85 1002.44 1001.93 1002.34 1003.26 1004.25 1005.07 1005.83 1005.34 1004.98 1004.96 1004.95 1004.52 1004.21 1004.30 1003.94 1004.48 1005.20 1005.85 1006.52 1007.04 1008.70 1009.73 1010.36 1011.83 1011.90 1012.33 1012.56 1013.20 1014.31
1016.68 1015.93 1015.61 1015.21 1015.05 1012.12 1010.90 1010.32 1009.93 1010.28 1008.21 1005.33 1003.98 1003.78 1003.84 1003.19 1002.60 1002.22 1002.64 1003.04 1003.63 1004.76 1005.10 1004.95 1004.19 1004.39 1003.82 1003.35 1003.39 1003.21 1003.51 1004.42 1005.80 1006.79 1007.75 1007.35 1008.14 1009.64 1009.99 1009.29 1010.89 1011.71 1012.38 1013.38 1014.59
1016.04 1014.76 1014.99 1014.24 1012.81 1011.12 1011.02 1010.90 1011.22 1010.05 1007.73 1006.32 1005.41 1004.83 1004.47 1004.11 1003.41 1003.13 1003.25 1003.76 1004.35 1005.21 1005.26 1004.91 1003.92 1003.33 1003.24 1003.26 1002.58 1002.98 1004.54 1005.94 1007.09 1007.73 1008.05 1007.38 1008.22 1008.15 1008.25 1008.10 1008.47 1010.15 1011.82 1012.78 1013.71
1015.31 1013.92 1013.51 1012.72 1011.58 1011.65 1011.58 1011.82 1011.69 1010.03 1008.47 1007.39 1006.58 1005.58 1005.16 1004.93 1004.34 1003.74 1003.61 1003.76 1004.14 1004.69 1005.29 1005.24 1004.07 1002.94 1002.40 1002.56 1002.63 1003.21 1004.32 1006.23 1007.27 1008.06 1008.23 1007.62 1007.93 1007.73 1007.74 1008.30 1009.09 1009.98 1011.32 1012.50 1013.66
1014.77 1013.59 1013.06 1011.14 1011.20 1011.81 1012.47 1012.96 1011.88 1010.20 1008.83 1007.89 1007.37 1006.43 1005.86 1005.81 1005.53 1004.62 1004.48 1004.58 1004.00 1003.91 1004.77 1004.92 1003.82 1002.59 1002.15 1002.03 1002.62 1002.75 1003.75 1004.36 1006.31 1007.38 1008.01 1007.82 1007.79 1007.49 1007.93 1008.57 1009.31 1010.23 1011.29 1012.36 1013.10
1015.91 1014.81 1012.57 1010.32 1010.83 1011.77 1012.91 1012.97 1011.57 1009.96 1009.00 1008.46 1008.31 1007.91 1007.19 1006.92 1006.16 1005.52 1005.03 1004.42 1004.44 1004.35 1004.03 1003.99 1003.82 1002.15 1001.49 1001.60 1001.42 1002.22 1002.35 1004.51 1006.29 1007.54 1008.31 1008.29 1007.73 1007.65 1007.61 1008.48 1009.03 1010.01 1010.77 1011.74 1012.69
1016.16 1014.77 1011.52 1010.55 1011.09 1012.67 1013.64 1012.85 1011.30 1009.98 1009.08 1008.86 1008.95 1008.64 1008.37 1008.17 1007.32 1006.49 1005.71 1004.88 1004.44 1004.56 1004.58 1004.84 1004.43 1002.46 1002.04 1001.68 1001.82 1002.14 1002.43 1003.88 1005.52 1006.70 1007.68 1008.36 1007.64 1006.37 1006.57 1006.84 1008.22 1008.89 1009.88 1010.63 1011.56
1017.72 1015.67 1011.83 1011.41 1012.71 1013.58 1013.74 1012.82 1011.51 1010.36 1009.54 1009.64 1009.70 1009.62 1009.80 1009.54 1008.39 1007.43 1006.47 1005.89 1005.30 1005.27 1005.60 1005.41 1005.02 1004.18 1002.60 1001.33 1001.18 1001.45 1002.01 1003.02 1005.37 1006.59 1007.39 1007.50 1006.80 1005.30 1005.60 1005.94 1006.76 1007.76 1008.81 1009.69 1010.36
1019.30 1016.88 1012.49 1012.32 1014.38 1015.14 1014.51 1013.40 1012.06 1010.95 1010.31 1010.29 1010.52 1010.92 1011.14 1010.85 1009.99 1008.95 1007.68 1007.26 1006.72 1006.83 1007.25 1006.63 1006.04 1005.36 1003.41 1002.30 1001.32 1001.29 1001.94 1002.73 1004.06 1005.62 1006.51 1006.87 1005.99 1004.78 1004.77 1005.61 1006.29 1007.07 1008.41 1009.45 1010.39
1019.36 1018.07 1015.97 1015.41 1015.90 1016.33 1015.92 1014.41 1012.86 1011.26 1010.85 1010.83 1011.37 1011.70 1011.77 1011.54 1011.10 1010.26 1009.42 1008.46 1008.08 1007.68 1007.85 1007.02 1006.92 1006.88 1005.52 1003.09 1001.77 1001.65 1001.75 1002.67 1003.80 1005.55 1005.91 1005.72 1005.21 1004.99 1005.05 1005.16 1005.75 1006.59 1007.45 1008.47 1009.51
1019.67 1019.87 1019.33 1018.43 1017.60 1017.49 1016.80 1015.60 1014.24 1013.04 1011.85 1011.94 1012.04 1012.74 1012.81 1012.41 1011.62 1011.01 1010.34 1009.68 1008.72 1008.47 1008.45 1009.30 1008.10 1007.33 1005.47 1003.54 1001.46 1001.04 1001.29 1002.24 1003.02 1003.83 1004.62 1004.90 1005.15 1004.71 1004.52 1004.68 1005.05 1005.65 1006.97 1008.50 1009.62
1020.87 1020.98 1020.44 1019.71 1018.77 1018.08 1017.24 1016.48 1015.49 1014.63 1013.73 1013.46 1013.36 1013.05 1013.04 1013.08 1013.05 1012.20 1011.22 1010.55 1010.20 1008.95 1009.80 1009.38 1009.12 1008.34 1006.12 1003.71 1001.92 1001.02 1000.62 1001.20 1001.95 1002.81 1003.69 1003.88 1004.33 1003.75 1004.39 1004.26 1005.14 1005.78 1006.69 1007.79 1008.96
1021.84 1021.40 1021.23 1020.38 1019.52 1018.83 1018.39 1017.64 1016.56 1015.79 1014.73 1014.34 1013.91 1013.35 1013.16 1013.04 1012.88 1011.85 1010.89 1010.49 1010.16 1010.10 1009.74 1009.83 1009.64 1009.62 1007.68 1005.17 1003.46 1001.51 1000.35 1000.74 1001.24 1001.65 1002.26 1003.39 1003.36 1003.48 1003.98 1004.09 1004.64 1005.36 1006.26 1006.87 1008.04
Thickness
5703 5707 5711 5715 5718 5721 5722 5726 5728 5732 5736 5739 5742 5745 5749 5752 5759 5761 5766 5795 5798 5806 5804 5806 5809 5806 5809 5800 5807 5802 5759 5751 5762 5765 5744 5752 5745 5765 5785 5782 5782 5783 5779 5776 5772
5700 5706 5710 5713 5717 5719 5722 5726 5728 5732 5734 5737 5740 5744 5746 5750 5754 5763 5804 5805 5806 5804 5797 5794 5789 5795 5787 5793 5796 5779 5754 5771 5786 5785 5753 5756 5761 5768 5770 5773 5767 5770 5778 5775 5769
5698 5703 5707 5711 5715 5718 5723 5727 5730 5732 5733 5736 5739 5742 5745 5747 5751 5779 5810 5809 5804 5802 5799 5795 5793 5789 5780 5788 5788 5784 5764 5788 5798 5792 5781 5766 5760 5772 5773 5760 5779 5768 5762 5761 5760
5696 5700 5704 5709 5713 5719 5724 5727 5729 5731 5734 5737 5738 5740 5743 5743 5740 5795 5807 5810 5803 5798 5792 5788 5783 5774 5770 5774 5786 5776 5789 5792 5798 5785 5772 5765 5765 5764 5774 5773 5785 5774 5773 5766 5758
5692 5698 5702 5708 5714 5719 5724 5727 5730 5732 5735 5737 5737 5739 5740 5741 5755 5799 5801 5801 5797 5792 5783 5779 5773 5770 5763 5774 5782 5778 5788 5795 5802 5781 5778 5775 5768 5766 5764 5775 5773 5768 5772 5765 5756
5690 5696 5702 5709 5715 5720 5725 5728 5731 5733 5736 5737 5737 5737 5739 5732 5791 5798 5797 5793 5791 5786 5783 5780 5778 5776 5772 5773 5771 5787 5789 5791 5792 5778 5777 5767 5757 5762 5759 5765 5761 5763 5767 5767 5761
5689 5695 5702 5709 5715 5720 5725 5729 5733 5735 5736 5738 5737 5737 5739 5755 5791 5794 5792 5787 5794 5788 5781 5787 5786 5776 5776 5768 5788 5787 5779 5787 5785 5771 5767 5763 5737 5750 5765 5760 5759 5758 5761 5760 5750
5687 5694 5700 5706 5713 5720 5725 5731 5736 5738 5738 5739 5738 5737 5739 5787 5791 5786 5790 5786 5791 5793 5789 5794 5791 5778 5773 5785 5780 5772 5775 5759 5789 5771 5770 5775 5733 5759 5766 5764 5758 5757 5757 5751 5742
5685 5692 5699 5705 5711 5718 5726 5733 5739 5741 5738 5738 5736 5736 5741 5789 5781 5797 5794 5782 5786 5788 5789 5795 5787 5773 5774 5754 5739 5747 5740 5758 5772 5793 5774 5765 5739 5759 5764 5763 5753 5751 5746 5741 5733
5683 5690 5698 5704 5709 5715 5724 5733 5738 5736 5734 5735 5740 5730 5757 5766 5784 5796 5798 5792 5778 5778 5770 5771 5757 5747 5739 5730 5709 5730 5739 5757 5755 5783 5776 5756 5751 5761 5764 5762 5754 5748 5739 5734 5725
5681 5688 5696 5703 5708 5712 5719 5726 5727 5728 5733 5736 5743 5745 5762 5779 5790 5786 5794 5785 5778 5766 5740 5753 5732 5721 5733 5739 5747 5746 5740 5744 5760 5780 5772 5757 5751 5758 5758 5753 5746 5736 5728 5720 5714
5678 5685 5695 5703 5707 5711 5710 5715 5721 5730 5724 5749 5757 5759 5770 5773 5756 5771 5789 5761 5756 5736 5745 5734 5719 5743 5749 5748 5743 5741 5734 5740 5762 5785 5774 5759 5751 5757 5756 5753 5746 5737 5726 5723 5710
5677 5683 5690 5701 5707 5710 5711 5719 5733 5733 5719 5748 5762 5762 5761 5767 5752 5760 5772 5763 5749 5736 5735 5720 5738 5753 5748 5742 5737 5740 5736 5743 5752 5774 5770 5758 5727 5729 5735 5735 5731 5722 5712 5706 5706
5674 5680 5685 5698 5706 5701 5710 5727 5730 5732 5688 5724 5752 5766 5768 5766 5752 5778 5781 5763 5747 5734 5733 5729 5752 5746 5743 5738 5745 5724 5761 5762 5757 5748 5732 5769 5705 5719 5723 5716 5725 5725 5722 5714 5728
5672 5676 5681 5682 5683 5695 5716 5723 5725 5718 5660 5741 5752 5782 5768 5754 5762 5767 5783 5763 5737 5736 5734 5731 5741 5739 5733 5746 5758 5748 5769 5762 5759 5743 5741 5741 5708 5717 5728 5712 5718 5724 5726 5725 5716
5671 5676 5678 5682 5681 5702 5713 5716 5714 5673 5659 5715 5735 5730 5731 5744 5751 5760 5759 5766 5757 5735 5736 5738 5758 5748 5747 5761 5761 5772 5768 5754 5738 5720 5700 5733 5728 5706 5714 5741 5726 5726 5724 5720 5711
5671 5682 5679 5683 5693 5707 5707 5700 5662 5649 5707 5703 5706 5718 5721 5723 5732 5738 5735 5728 5715 5701 5703 5729 5739 5754 5760 5744 5761 5761 5725 5694 5695 5690 5690 5734 5715 5720 5738 5748 5753 5737 5724 5721 5715
5672 5682 5685 5690 5700 5698 5695 5672 5652 5676 5686 5705 5703 5710 5708 5713 5718 5725 5723 5714 5727 5723 5701 5694 5697 5743 5764 5750 5744 5742 5726 5687 5677 5680 5699 5727 5704 5721 5738 5746 5740 5734 5726 5721 5711
5670 5679 5682 5696 5696 5690 5671 5637 5645 5670 5688 5688 5691 5688 5696 5702 5702 5708 5705 5704 5725 5726 5702 5692 5706 5752 5753 5760 5750 5743 5722 5742 5713 5714 5697 5707 5719 5735 5731 5729 5729 5722 5719 5713 5710
5650 5659 5675 5694 5691 5677 5649 5639 5656 5677 5684 5685 5667 5682 5676 5685 5688 5691 5697 5715 5713 5724 5727 5716 5695 5744 5755 5760 5758 5743 5759 5721 5697 5685 5684 5692 5701 5699 5725 5719 5721 5718 5714 5711 5705
5644 5651 5678 5687 5682 5655 5632 5637 5660 5676 5680 5672 5666 5668 5674 5671 5682 5683 5692 5710 5720 5715 5718 5707 5698 5727 5742 5730 5728 5731 5731 5729 5714 5699 5680 5668 5679 5723 5727 5734 5721 5722 5717 5712 5709
5620 5635 5669 5673 5642 5634 5632 5648 5658 5663 5671 5663 5660 5662 5654 5658 5668 5679 5683 5696 5706 5705 5692 5699 5683 5685 5716 5748 5754 5748 5740 5731 5692 5698 5693 5681 5680 5740 5735 5737 5733 5727 5721 5717 5719
5599 5612 5657 5655 5618 5614 5625 5635 5646 5649 5652 5649 5645 5646 5642 5642 5643 5659 5673 5687 5685 5677 5668 5684 5671 5664 5694 5717 5739 5738 5740 5733 5711 5700 5692 5680 5685 5739 5743 5732 5729 5726 5716 5712 5707
5597 5603 5612 5616 5611 5606 5604 5613 5622 5642 5641 5642 5636 5633 5628 5628 5633 5636 5647 5667 5670 5673 5673 5676 5666 5665 5664 5696 5722 5721 5735 5728 5710 5682 5689 5692 5709 5723 5725 5724 5726 5724 5720 5716 5710
5583 5584 5583 5577 5590 5586 5592 5600 5606 5611 5627 5624 5620 5615 5611 5610 5617 5619 5632 5640 5656 5655 5654 5649 5646 5656 5679 5700 5723 5729 5730 5722 5720 5709 5694 5705 5704 5713 5722 5727 5726 5726 5721 5710 5700
5561 5556 5558 5558 5570 5578 5579 5583 5587 5592 5600 5597 5600 5604 5601 5598 5598 5605 5612 5621 5623 5643 5629 5635 5627 5644 5663 5700 5719 5719 5728 5725 5723 5716 5709 5709 5708 5726 5725 5729 5720 5722 5716 5709 5699
5540 5545 5542 5547 5556 5563 5561 5564 5572 5576 5585 5587 5587 5591 5592 5594 5593 5604 5616 5618 5620 5617 5620 5621 5624 5620 5633 5672 5688 5691 5709 5720 5723 5724 5715 5698 5713 5720 5720 5725 5719 5719 5716 5712 5704